Wind_Speed
36 38 39 40 40 39 37 37 37 38 39 39 40 39 39 39 38 37 35 34 33 33 33 32 32 32 32 32 33 33 34 35 35 36 37 38 39 39 40 40 41 41 41 42 42 42 42 42 43 43 44 44 45 45 46 47 47 48 49 51 52 53 56 59 63 67 67 65 66 65 63 61 60 59 59 61 61 61 61 60 60 59 58 57 55
39 41 41 41 40 38 36 36 37 38 39 39 39 39 39 38 37 36 34 33 33 32 32 32 31 32 32 33 34 35 36 37 38 39 40 41 41 42 42 42 42 43 43 43 43 43 43 43 44 44 45 46 46 47 48 48 49 50 50 52 53 54 56 58 61 64 66 65 65 65 65 65 62 60 60 62 62 63 63 63 63 63 62 61 60
41 41 40 39 37 36 35 36 37 37 38 38 38 38 38 37 35 34 33 33 32 31 31 31 32 32 34 35 36 38 39 40 41 42 42 43 43 44 44 44 44 44 44 44 44 44 44 45 45 46 47 48 48 49 50 50 51 51 52 52 54 55 56 58 61 63 65 65 64 64 65 66 65 62 61 61 62 63 65 64 64 65 65 64 64
41 39 38 36 35 34 35 36 37 37 37 37 37 36 35 34 33 32 32 32 31 31 31 32 33 35 36 38 39 40 41 42 43 43 44 44 44 45 45 45 45 45 45 45 45 46 46 46 47 48 49 49 50 51 52 52 53 54 54 54 55 56 57 58 60 63 65 67 66 65 66 67 66 64 62 61 61 62 64 65 65 66 66 67 67
37 36 35 35 35 35 36 37 37 37 37 36 35 34 33 32 31 31 31 31 31 32 33 34 36 38 39 40 41 42 43 43 44 44 44 44 44 44 44 44 45 45 45 46 47 47 48 48 49 49 50 51 52 52 53 54 55 56 57 57 58 59 59 60 61 63 65 67 67 67 67 68 68 66 64 63 62 61 62 63 65 66 67 67 68
35 35 35 36 36 36 37 37 37 36 35 34 33 32 31 31 31 31 31 31 32 34 36 38 40 41 42 43 43 43 43 44 44 44 44 44 44 44 44 44 45 45 46 46 47 48 49 49 50 50 51 52 53 54 55 56 57 58 58 59 60 61 62 62 63 64 65 66 67 67 68 68 69 68 66 65 64 63 61 62 63 65 67 68 69
37 37 37 37 37 37 37 36 35 34 33 32 31 31 31 31 31 31 32 33 35 37 40 41 42 43 43 44 44 43 43 43 43 43 43 44 44 44 44 45 45 46 46 46 47 48 49 49 50 51 52 53 54 55 56 57 58 59 60 61 62 62 63 63 64 65 65 66 66 66 67 67 68 68 66 64 64 64 63 63 63 63 64 67 69
39 39 38 38 37 37 36 35 34 32 31 31 31 31 31 32 32 32 34 36 38 40 42 42 43 43 43 43 42 42 42 42 42 43 43 44 44 44 44 45 45 45 46 46 47 48 48 49 50 51 52 53 53 55 56 57 59 59 60 61 62 63 64 64 64 64 65 65 64 64 64 65 66 66 65 64 63 63 62 64 65 62 62 64 67
41 40 40 39 38 37 35 33 32 31 30 30 31 32 32 33 34 35 36 39 40 41 42 42 42 42 42 41 41 41 41 42 42 43 43 43 43 44 44 44 45 45 46 46 47 47 48 49 50 51 51 52 53 55 56 57 59 60 60 62 63 64 64 64 63 63 63 63 62 62 62 63 63 64 64 63 63 63 62 62 64 63 62 63 64
41 41 41 39 38 36 33 31 30 29 30 30 32 33 34 35 37 38 40 40 40 40 40 41 41 41 41 41 40 40 40 41 41 42 42 43 43 44 44 44 45 45 46 46 47 48 48 49 50 50 51 52 54 55 57 58 60 61 62 63 63 63 63 62 61 61 62 61 60 60 61 61 61 62 63 63 64 64 63 63 64 63 63 64 63
42 42 41 38 36 34 31 29 28 29 30 31 33 34 36 38 40 41 41 40 39 39 39 40 41 40 40 39 39 39 39 40 41 42 42 43 43 44 44 44 45 46 46 47 47 48 48 49 50 51 52 53 55 57 58 60 61 62 63 63 63 62 62 61 60 60 60 60 59 59 60 60 60 61 62 63 64 64 63 64 64 63 63 65 63
43 42 39 36 34 32 30 29 29 29 31 33 35 37 39 41 41 41 40 39 38 38 39 40 40 39 38 38 38 38 39 40 41 41 42 43 44 44 45 45 45 46 46 47 47 48 49 49 50 52 53 55 57 59 61 62 63 63 62 62 61 60 59 59 59 59 59 59 58 57 58 59 58 59 60 61 62 62 62 62 62 61 61 62 63
42 39 36 34 32 31 30 29 30 31 33 35 38 40 41 41 40 39 39 38 38 39 39 39 38 37 37 37 37 38 39 40 40 41 42 43 44 45 45 45 45 46 46 47 47 48 50 51 52 54 55 58 60 61 63 63 63 62 61 60 58 57 56 56 56 56 57 57 57 56 55 56 56 56 56 58 58 59 59 58 57 56 56 57 59
39 36 34 32 31 30 30 31 32 34 36 38 40 41 41 40 39 38 38 38 38 38 38 37 36 36 36 37 38 38 39 41 41 42 43 44 45 45 45 45 45 45 46 47 48 49 51 52 54 56 58 60 62 63 63 62 61 60 59 57 56 54 54 54 54 53 53 54 54 53 51 52 53 53 53 54 55 55 55 54 53 53 53 52 53
35 34 32 30 30 31 32 34 36 38 39 40 40 40 39 39 38 38 39 39 38 38 37 36 36 36 37 38 39 40 41 42 43 43 44 44 44 44 45 45 45 46 46 48 49 50 52 54 56 58 59 61 62 62 62 60 59 58 57 56 55 54 53 52 51 51 50 50 50 50 50 50 51 51 51 51 52 51 51 51 51 51 51 49 48
33 31 30 30 31 33 35 37 38 39 40 39 39 39 38 38 38 39 39 39 38 37 36 36 36 37 38 39 40 41 42 42 43 43 43 43 43 44 44 45 46 46 47 49 50 52 53 55 57 58 60 60 60 59 59 58 58 58 57 56 54 53 52 50 49 48 47 47 48 49 50 50 50 50 49 49 48 48 49 49 49 49 48 46 44
30 30 31 32 34 36 37 38 39 39 38 38 38 38 38 38 39 39 39 38 37 37 36 36 37 38 39 40 41 42 42 42 42 41 41 42 43 44 45 46 47 48 49 50 52 53 54 56 57 59 59 59 57 57 56 57 57 57 56 55 54 53 52 49 47 45 44 45 46 47 47 47 47 48 48 47 46 45 47 48 47 46 47 45 44
30 31 33 34 36 37 37 37 37 37 37 37 37 37 38 38 39 39 38 38 38 37 37 37 38 39 40 41 41 41 40 40 39 39 40 41 43 44 45 46 48 49 51 52 53 54 54 55 57 58 58 56 55 55 55 55 55 55 55 54 54 53 51 48 46 45 44 43 44 45 45 45 44 45 45 44 43 43 45 47 46 46 47 47 46
30 32 33 34 35 36 36 36 35 35 35 36 36 37 37 38 38 38 38 38 38 37 37 38 38 39 40 40 39 39 38 37 38 39 40 42 44 45 47 48 49 51 52 53 53 54 55 55 56 57 56 54 53 53 53 53 53 53 53 53 54 53 49 46 46 45 44 44 44 44 43 43 42 42 41 40 39 39 40 42 43 45 48 48 48
29 30 31 32 33 34 34 34 35 35 35 35 35 36 36 37 37 38 39 39 39 38 38 39 39 39 39 38 37 36 36 36 37 39 41 43 45 47 49 50 51 52 53 54 54 55 55 55 55 55 53 52 51 51 51 51 51 51 51 51 51 50 47 46 46 45 45 44 43 42 42 42 41 40 38 37 36 34 34 35 37 40 44 47 47
28 28 29 30 31 32 33 34 34 34 34 35 35 35 36 37 38 39 39 39 39 39 39 39 39 38 37 36 35 35 36 37 38 40 42 44 47 49 50 51 52 53 55 56 56 56 55 55 54 52 51 49 49 49 49 49 49 50 50 49 49 47 45 46 47 46 45 45 43 42 42 41 40 38 37 35 34 33 33 34 35 37 41 44 45
27 27 28 28 29 30 31 32 32 33 34 34 35 36 36 37 38 39 40 40 39 39 39 38 38 37 36 35 35 35 37 38 40 42 44 46 48 50 51 53 54 56 57 57 56 55 54 53 52 50 48 48 47 47 48 48 48 48 49 48 47 44 42 44 46 46 45 44 44 43 42 40 39 37 35 34 33 33 34 35 36 37 39 42 43
27 27 28 28 29 30 30 31 31 32 33 34 35 36 37 38 39 40 40 40 39 39 39 39 38 37 36 35 36 37 39 40 42 43 45 47 48 50 52 54 56 57 57 57 55 53 51 50 49 48 46 46 46 46 46 46 45 45 45 45 45 44 42 44 45 44 43 43 43 42 40 38 36 35 33 33 32 32 33 34 34 36 38 40 42
28 28 28 29 30 30 30 31 32 33 34 35 36 37 38 39 40 40 40 40 40 39 39 39 38 37 37 37 37 39 40 42 43 44 46 48 50 51 53 55 55 55 55 54 53 51 49 48 46 45 45 45 46 45 45 45 44 44 42 42 42 42 42 42 41 41 42 42 40 39 37 34 32 32 31 31 31 31 32 33 34 37 39 41 43
28 29 29 30 30 30 31 32 33 35 36 37 38 39 39 40 40 41 41 40 40 39 39 39 39 38 38 38 39 40 42 43 44 46 47 49 51 53 54 54 53 52 52 51 50 48 46 44 43 43 44 44 45 45 45 45 46 45 43 41 40 40 40 39 39 39 40 39 37 36 34 31 30 31 31 30 31 31 32 34 37 39 41 44 46
30 30 31 31 31 31 32 33 34 36 37 38 39 40 40 41 41 41 41 40 40 39 39 39 39 39 40 40 41 42 43 45 46 48 49 51 53 53 53 51 50 49 49 48 47 45 43 41 41 41 42 43 44 45 46 46 47 46 43 40 38 38 38 38 38 37 36 35 34 33 31 30 30 31 30 31 31 31 33 36 39 40 42 45 47
32 33 32 32 32 33 33 34 35 36 37 38 39 39 40 41 41 41 41 40 39 39 38 39 40 40 41 42 43 44 45 46 48 49 51 53 54 53 51 49 48 49 48 46 44 42 40 39 39 41 42 43 44 44 45 45 45 44 41 38 36 35 36 36 36 35 34 33 32 31 30 30 30 30 30 31 32 32 33 37 39 40 41 43 46
35 34 33 33 34 34 34 34 35 35 36 36 37 38 39 39 40 40 40 40 39 39 39 40 40 41 42 43 44 46 47 48 49 51 53 54 54 52 50 49 48 48 47 44 42 40 38 38 39 40 42 43 44 44 43 43 42 41 39 37 34 32 33 34 34 34 33 33 33 33 32 31 31 30 30 31 32 31 33 35 37 39 39 39 40
36 34 33 33 34 34 34 34 34 34 35 35 35 36 37 38 39 40 40 40 39 39 40 41 41 42 43 45 46 47 48 49 50 52 54 54 52 51 49 48 48 47 45 43 41 39 38 38 40 41 42 43 44 44 43 41 39 37 36 35 33 31 30 31 31 32 32 33 33 33 33 33 33 32 32 33 32 31 32 34 35 35 35 33 33
36 33 33 33 34 34 34 34 34 34 34 34 35 35 36 37 38 39 39 39 39 39 40 41 42 44 45 46 48 49 49 50 52 53 53 52 51 50 48 47 45 44 42 40 39 38 38 39 40 42 43 43 44 44 43 42 39 36 33 32 31 30 30 29 30 31 32 32 33 34 34 35 35 35 35 36 35 33 32 32 33 32 31 30 30
34 33 33 34 34 35 35 34 34 34 34 35 35 35 36 37 37 38 38 38 39 39 40 42 43 45 47 48 49 50 50 51 52 53 53 52 51 49 47 44 42 41 39 38 37 37 38 39 40 42 42 43 44 44 43 41 39 37 34 31 29 29 29 29 29 31 31 32 33 34 35 36 37 37 38 39 39 38 35 32 31 30 29 28 30
34 33 34 35 35 35 35 35 35 35 35 35 35 36 36 36 37 37 37 38 38 39 41 42 43 45 47 48 50 50 50 51 52 52 51 51 51 48 44 41 39 38 36 36 36 37 38 39 40 41 42 42 42 42 41 40 39 37 35 33 30 28 28 28 29 30 30 31 31 32 34 35 36 37 38 39 40 40 38 34 30 29 29 29 30
35 35 36 36 36 36 35 35 35 35 36 36 36 36 36 36 36 36 36 37 38 39 41 42 43 45 47 48 49 50 50 50 51 51 51 51 50 45 40 38 37 36 34 34 35 36 37 38 39 40 41 41 41 40 39 39 38 36 36 35 33 31 30 29 29 29 29 30 30 30 31 33 34 35 36 36 36 37 37 34 30 28 29 29 30
37 37 38 38 37 36 36 36 36 36 36 36 36 36 36 36 36 36 36 37 38 39 41 42 43 45 46 47 49 49 49 49 49 50 51 50 47 42 37 34 34 34 34 34 35 36 36 36 37 38 38 38 38 38 38 37 37 36 35 35 34 34 33 31 30 30 30 30 30 30 30 31 31 32 33 33 33 33 32 31 29 28 28 29 30
39 39 40 40 39 38 37 37 37 37 37 36 36 36 35 35 36 36 37 38 39 40 41 42 43 45 46 47 48 48 48 48 48 49 49 47 43 38 34 32 31 31 33 34 35 35 35 35 36 36 36 35 35 36 36 36 35 35 34 33 33 33 33 32 32 31 30 30 30 30 30 29 29 30 30 30 30 29 28 27 26 26 26 27 28
41 41 42 42 41 40 39 39 38 38 37 37 37 36 36 36 36 37 38 39 40 41 41 42 44 46 47 47 47 47 47 47 47 48 47 44 39 35 32 30 29 29 30 31 32 33 34 34 35 34 34 33 33 33 33 33 33 33 32 32 32 32 32 32 31 31 30 30 29 29 29 29 28 28 28 28 27 27 27 26 24 23 23 24 26
42 43 43 43 43 42 42 41 40 40 39 39 38 37 37 37 38 38 39 40 41 42 42 42 44 45 46 47 48 47 46 45 46 46 43 40 36 33 31 29 28 28 29 29 29 30 31 33 33 32 31 30 30 30 30 31 32 32 31 30 29 30 30 30 30 30 30 29 28 28 28 28 28 27 28 28 27 26 26 26 25 24 22 23 24
43 44 44 44 45 44 43 43 43 42 42 41 40 40 39 39 39 40 41 41 42 42 43 43 44 44 45 47 47 47 45 43 43 43 40 36 34 32 30 29 28 28 28 28 28 28 29 29 30 30 29 28 27 27 27 28 29 30 30 29 27 27 27 27 27 27 27 27 27 27 26 26 26 26 27 27 27 26 26 25 24 24 23 21 22
45 45 45 46 46 45 45 45 44 44 43 43 42 42 41 41 41 42 42 42 42 42 43 44 44 44 45 46 46 46 43 40 38 37 36 34 32 31 29 29 29 28 27 27 27 27 27 27 27 27 26 26 26 26 26 26 27 28 29 29 27 26 26 26 26 25 26 26 26 26 26 26 26 25 25 25 25 26 25 24 23 23 23 22 21
45 46 46 46 46 46 46 46 45 45 44 44 44 43 43 43 43 43 43 43 43 43 43 43 43 44 45 45 45 45 42 37 34 32 32 31 30 29 29 28 28 28 27 26 26 26 26 26 26 26 25 25 25 25 25 26 26 27 28 28 28 27 26 26 25 25 25 25 25 25 26 26 26 26 25 25 24 24 24 24 23 23 23 23 22
46 46 47 47 47 47 47 46 46 45 45 45 45 45 44 44 44 44 44 43 43 43 43 43 43 44 45 44 44 43 40 35 31 29 29 29 28 27 28 28 28 27 26 25 25 25 25 26 26 25 25 25 25 25 25 26 26 26 27 28 28 28 27 26 26 25 24 24 23 23 24 25 25 26 26 26 25 24 24 24 23 22 22 23 23
47 47 47 47 47 47 47 47 47 46 46 46 46 46 46 45 45 44 44 44 44 43 43 43 44 44 44 44 43 41 38 33 29 28 28 28 27 26 27 27 27 26 25 25 24 24 24 25 25 25 25 25 24 25 25 26 26 27 27 28 28 29 29 28 27 26 25 23 22 22 23 23 24 25 25 25 25 25 24 24 23 22 21 20 21
47 47 47 47 47 47 47 47 47 47 47 47 47 47 46 46 45 45 45 45 44 44 43 43 44 44 44 43 42 39 35 31 28 27 26 26 26 26 26 26 26 25 25 25 24 24 24 24 24 24 24 25 25 25 25 26 27 27 28 29 29 30 30 30 29 28 26 25 24 23 23 24 24 24 24 24 24 23 22 22 22 21 20 18 18
46 47 47 47 47 48 48 48 48 48 48 48 48 47 47 46 46 46 46 45 45 44 44 44 44 44 43 42 40 37 33 30 28 27 26 25 25 25 26 25 25 24 24 24 25 25 24 24 23 23 23 24 25 25 25 26 27 28 28 29 29 30 31 31 31 30 30 28 27 26 25 25 26 25 25 24 24 22 20 19 18 18 17 16 15
46 47 47 47 48 49 49 49 49 49 49 49 48 48 47 47 47 47 46 46 45 45 45 44 44 43 42 40 38 34 31 29 27 27 25 25 25 25 25 25 24 23 24 24 24 25 25 24 23 23 23 23 24 25 25 26 27 27 28 29 30 30 31 31 32 32 32 31 30 29 28 28 28 27 26 25 24 23 21 19 17 16 15 14 13
47 48 48 49 49 50 50 50 51 51 50 50 50 49 49 48 48 48 47 47 46 46 45 44 44 43 41 38 35 32 30 28 27 26 25 25 26 26 25 24 24 23 23 24 24 25 25 25 24 23 23 23 24 24 25 25 26 27 27 28 29 30 30 31 31 32 32 32 31 31 30 29 29 28 28 27 25 23 22 21 19 17 15 14 13
49 50 51 51 52 52 53 53 53 53 53 52 52 51 51 50 50 49 49 48 47 46 45 44 43 42 39 35 32 30 28 27 26 26 26 26 27 27 26 25 24 23 23 24 25 25 25 25 25 25 24 24 24 24 25 25 26 26 27 28 28 28 29 29 30 30 31 30 30 31 31 30 29 29 28 27 25 24 23 21 20 19 17 16 14
53 54 54 55 55 56 56 56 56 56 56 55 54 53 53 52 51 51 49 48 47 46 44 43 42 40 36 32 30 28 27 26 26 25 26 27 27 26 25 24 23 23 24 24 25 25 25 25 25 25 25 25 25 25 25 25 25 26 27 27 27 28 28 28 29 29 29 29 29 29 29 29 29 29 29 28 27 25 24 23 21 20 18 17 16
56 57 58 59 59 59 59 59 59 58 57 56 55 54 53 52 51 50 48 47 46 44 42 41 39 36 33 30 28 27 26 26 25 25 26 26 26 25 23 23 22 23 23 23 24 25 25 25 25 25 25 26 26 26 25 25 25 25 26 26 27 27 27 27 27 27 27 27 27 27 27 27 27 27 28 27 27 26 26 24 23 21 19 18 16
59 59 59 59 59 59 59 58 57 56 55 54 53 52 51 50 48 47 45 44 43 41 40 38 35 32 29 28 27 26 25 25 24 25 25 24 23 22 21 21 21 22 22 22 23 24 24 25 25 25 25 25 25 26 26 26 25 25 25 26 26 26 26 26 26 26 26 25 25 25 25 25 25 25 25 26 25 25 25 24 23 21 20 18 17
55 55 55 55 54 54 53 53 52 51 49 49 48 47 46 44 43 42 41 40 38 37 36 33 30 28 27 26 25 25 24 24 23 23 22 21 20 20 20 20 21 21 22 22 23 24 24 24 25 25 25 25 25 25 25 25 25 25 25 25 26 26 25 25 25 24 24 24 24 24 24 24 24 23 23 23 23 23 23 23 23 21 20 19 18
Wind_Direction
288 294 298 301 301 300 302 303 303 304 305 306 306 306 305 305 304 304 303 303 303 303 303 302 301 301 300 299 299 298 298 297 296 296 295 295 294 294 293 293 293 293 294 294 294 294 293 293 292 292 292 291 291 290 288 287 286 285 284 283 281 282 282 282 282 280 279 281 281 280 279 277 273 271 270 267 264 263 261 259 258 258 258 258 256
294 298 300 299 297 297 299 301 302 303 303 303 303 302 302 301 300 301 301 301 301 301 301 300 299 298 298 297 297 297 297 297 296 296 295 294 294 293 293 293 292 292 292 292 292 292 292 292 292 292 292 292 292 292 291 290 290 289 288 288 286 285 285 284 283 282 280 279 279 279 279 279 276 273 272 270 267 266 264 261 260 259 258 258 258
297 297 296 293 293 296 299 301 302 302 302 300 299 298 298 297 298 298 299 300 300 300 299 298 297 297 297 297 297 297 297 296 295 295 294 293 293 292 292 292 292 292 292 292 292 292 292 292 293 293 292 292 292 291 291 290 290 289 288 288 288 287 288 288 287 286 284 282 282 280 279 279 278 275 273 272 269 268 267 265 262 261 259 258 259
294 292 291 292 295 298 300 301 301 300 299 298 297 296 295 296 297 298 299 299 299 299 298 297 297 297 297 297 297 296 295 294 293 292 292 291 291 291 291 292 292 293 293 293 293 294 294 294 294 294 293 293 292 292 291 291 290 290 289 289 288 288 288 288 289 289 288 286 285 284 283 282 280 277 275 273 270 269 268 267 266 264 262 260 259
290 289 291 294 296 298 298 299 298 297 296 295 295 294 293 294 296 297 298 298 298 297 297 297 297 297 297 296 295 294 294 293 292 292 292 291 291 292 292 292 293 294 294 295 295 295 295 295 295 295 294 294 294 293 293 292 292 292 291 291 290 290 289 289 289 289 289 288 287 286 285 285 284 281 279 276 273 269 267 266 266 266 265 263 261
292 292 293 293 294 295 295 295 294 294 293 291 291 290 291 292 294 296 296 297 296 296 297 297 297 297 297 296 295 295 294 294 294 293 293 294 294 294 294 295 295 295 295 296 296 296 296 296 295 295 295 295 294 294 294 294 294 294 293 293 292 292 291 290 290 289 289 288 287 286 286 285 285 284 282 280 278 273 269 266 264 264 265 264 263
293 290 290 290 290 291 291 291 291 290 289 288 287 288 289 291 293 294 295 295 296 296 297 297 297 297 297 296 296 296 296 296 295 295 296 296 296 296 296 296 296 296 296 296 296 296 295 296 296 295 296 296 296 296 296 295 295 295 295 295 294 293 292 291 290 290 289 288 287 286 285 285 285 284 283 282 280 278 275 270 265 261 261 262 262
289 287 286 287 287 288 289 289 288 287 286 285 286 287 289 290 292 293 294 295 296 296 296 296 296 296 296 296 296 296 296 296 296 296 296 296 296 296 296 296 296 296 296 295 295 295 295 295 296 296 296 296 296 297 297 297 297 297 296 296 296 295 294 293 292 290 289 288 286 285 284 283 283 283 282 281 280 279 277 274 271 266 261 259 259
285 284 284 285 286 287 287 287 286 284 283 283 284 286 288 289 291 292 294 295 296 296 296 295 295 295 295 295 295 296 296 296 296 297 296 296 296 296 296 296 296 296 296 296 296 296 296 296 296 296 296 297 297 298 298 298 299 298 298 297 297 296 295 293 292 290 289 288 286 285 283 282 282 281 281 281 280 278 276 275 274 271 267 262 258
282 282 282 284 285 286 286 285 283 281 281 281 282 284 286 288 291 293 295 296 295 294 294 293 293 293 294 295 296 297 297 297 298 298 298 297 297 297 297 296 296 296 296 296 296 296 296 296 296 297 297 298 298 299 299 300 299 299 299 298 297 296 294 293 292 291 290 288 287 286 284 283 282 282 281 280 280 279 277 276 274 272 271 268 263
279 280 281 283 284 284 284 282 280 279 279 280 281 283 286 289 292 294 295 295 294 292 291 292 292 294 295 296 297 298 299 299 299 299 298 299 298 298 298 298 297 297 297 297 297 297 297 297 297 298 299 300 300 300 300 300 299 299 298 297 296 296 295 295 294 293 292 290 288 287 286 284 283 282 281 280 279 279 278 277 276 274 272 271 269
278 279 281 282 282 283 282 280 279 279 279 280 282 285 288 291 293 294 294 294 292 291 291 292 294 296 297 298 299 300 300 300 300 300 300 299 299 298 298 298 298 298 298 298 298 298 298 299 299 300 301 301 301 301 300 300 299 298 297 296 296 297 297 297 296 294 293 291 290 288 287 285 284 283 282 281 280 279 278 277 277 277 275 273 272
277 278 280 281 281 281 280 280 279 278 279 281 284 287 289 291 292 293 293 292 292 292 292 294 296 298 299 300 301 301 301 301 301 301 300 299 299 298 298 298 298 299 299 299 300 300 301 301 301 302 302 302 302 301 301 300 298 297 296 296 296 296 297 296 295 294 292 291 289 288 286 286 285 284 284 283 281 279 278 277 276 276 275 274 274
276 279 280 280 280 280 280 280 279 280 282 284 286 288 289 290 291 291 292 292 292 292 293 295 298 299 300 301 302 302 302 301 300 300 299 298 298 297 298 298 299 299 300 300 301 301 302 302 303 303 303 303 303 302 300 299 298 296 296 296 297 297 296 295 294 293 291 290 288 286 285 285 285 285 284 283 281 280 278 277 275 274 273 274 275
278 280 280 280 279 279 279 280 282 283 285 286 286 287 288 289 290 290 291 291 291 292 294 296 299 300 300 301 302 302 301 300 299 298 298 297 296 297 297 298 299 300 300 301 302 302 303 304 304 304 304 304 303 301 300 300 299 298 298 299 299 298 296 295 295 294 292 289 287 286 285 285 286 286 283 281 280 279 277 276 275 274 274 275 276
281 281 280 279 278 279 280 282 283 284 285 285 285 286 287 288 288 289 289 290 291 292 294 297 298 299 300 300 300 300 299 298 297 297 296 296 296 297 298 299 300 301 301 302 303 303 305 305 305 306 306 305 303 302 302 302 301 301 300 300 299 297 296 296 296 295 292 288 286 285 285 287 287 287 284 282 280 279 276 275 274 274 275 275 275
281 280 279 279 280 281 282 282 283 283 283 283 284 285 285 286 286 287 288 289 290 292 294 296 297 298 299 299 299 298 298 297 297 296 296 296 297 298 299 300 301 302 303 303 304 305 305 306 307 307 307 306 304 304 304 303 302 302 301 300 300 299 298 299 298 294 289 285 283 282 283 285 287 286 284 282 281 280 277 275 274 274 274 274 274
282 281 280 280 280 280 280 280 280 280 280 281 282 282 283 284 285 286 287 289 290 292 294 296 296 297 298 298 298 298 298 297 297 296 297 298 299 300 301 301 302 303 303 304 304 305 306 307 308 309 308 306 305 305 305 304 304 303 303 303 302 301 302 302 299 293 287 283 280 279 280 282 283 283 282 280 280 279 278 277 276 275 273 272 273
281 280 279 279 278 278 277 277 277 277 278 278 279 280 281 283 284 286 288 289 291 293 294 295 296 297 297 298 299 299 299 298 297 297 298 299 300 301 302 302 303 303 303 304 305 305 306 307 308 309 307 306 306 306 306 306 306 305 305 304 303 304 304 302 297 292 289 286 283 281 281 282 283 283 281 279 278 278 277 277 276 275 274 273 274
279 279 278 278 277 277 277 276 276 276 277 277 278 280 281 283 285 287 289 290 291 292 293 294 295 296 297 298 299 298 298 297 297 297 299 300 301 302 302 303 303 303 304 304 305 305 306 306 307 308 306 305 306 307 307 307 307 307 306 306 305 305 304 300 296 293 291 289 288 287 287 287 288 289 287 284 282 281 279 276 273 272 272 272 272
280 279 277 277 277 277 277 278 278 277 277 277 279 281 283 285 286 288 289 290 291 292 293 294 295 296 296 297 297 296 296 296 297 298 299 300 301 302 302 303 303 304 304 304 304 305 305 306 306 306 305 305 306 306 306 307 308 309 309 308 307 306 303 299 296 295 294 294 294 293 293 294 295 295 293 290 288 287 283 279 274 272 271 271 271
279 277 277 277 278 279 279 280 280 279 279 279 280 282 283 285 286 288 289 290 291 292 292 293 294 294 294 294 295 295 295 296 297 298 299 300 301 302 303 303 304 304 305 305 305 305 305 305 305 305 303 304 305 306 307 309 311 311 310 308 306 304 300 295 294 294 295 296 296 296 296 297 295 294 292 290 290 289 286 283 280 278 277 277 276
278 278 280 281 281 282 283 284 284 283 282 282 282 283 284 286 287 289 291 292 292 292 292 293 293 292 292 292 293 293 294 296 297 298 299 300 301 302 303 304 305 306 306 306 306 305 305 304 303 302 302 304 306 308 310 311 311 310 308 305 302 300 296 293 293 294 294 294 295 296 296 295 293 292 291 290 290 289 288 287 286 284 282 281 279
279 282 285 286 287 288 288 289 288 287 286 285 285 285 287 288 290 292 293 293 292 291 291 292 292 291 291 292 292 292 294 296 297 299 300 301 301 302 304 305 306 306 306 305 305 305 304 303 302 302 304 307 309 310 311 311 311 310 307 303 299 297 295 294 293 293 293 294 296 295 294 295 294 293 293 292 293 293 293 293 292 290 288 286 284
284 286 289 290 290 291 291 291 290 289 288 287 287 288 289 290 292 293 293 293 291 290 291 292 291 291 291 292 293 294 296 297 298 300 301 301 302 304 305 305 306 305 304 304 304 304 303 302 302 304 307 308 309 311 312 313 313 312 310 306 301 297 296 295 294 293 294 296 296 295 295 297 296 295 296 296 296 297 297 297 295 294 292 290 288
289 291 293 292 292 292 292 292 291 290 289 289 288 289 290 291 292 293 293 293 291 290 291 291 291 291 292 293 295 296 298 299 300 301 302 302 303 304 305 305 304 303 303 303 303 303 302 302 303 305 308 310 312 314 315 315 314 313 311 308 303 299 297 295 295 296 297 296 295 294 295 295 293 293 294 294 294 297 298 296 295 295 294 292 290
292 293 294 293 292 292 292 292 291 291 290 289 289 290 291 292 293 294 294 293 291 290 291 292 292 292 293 295 297 298 299 300 301 302 303 303 304 304 305 304 304 303 304 303 303 303 302 303 305 308 311 313 315 317 317 316 315 314 311 308 303 299 298 297 297 299 299 297 295 294 293 292 290 290 291 291 293 298 300 299 298 299 300 297 293
293 294 293 292 291 291 292 292 292 291 291 291 292 292 293 294 296 296 295 294 292 291 292 293 293 293 294 296 298 299 301 302 302 303 304 305 305 305 305 305 305 305 305 305 305 305 305 306 310 312 314 316 317 317 317 317 315 314 312 309 305 300 298 297 298 299 299 297 295 293 292 291 289 288 289 291 295 300 304 304 305 307 308 305 299
292 292 290 289 289 290 291 291 292 293 293 294 295 295 296 297 298 298 296 294 293 292 293 293 294 294 296 297 299 300 301 302 303 305 306 306 306 306 306 306 306 307 307 307 307 308 308 310 314 316 317 318 318 318 318 317 316 315 313 311 308 304 299 297 297 296 295 294 293 293 292 291 291 291 293 295 298 302 305 307 310 313 314 310 305
289 288 287 287 288 288 289 291 292 292 293 294 295 297 298 298 299 298 296 294 293 293 293 294 294 295 296 298 300 301 302 303 305 306 307 306 306 306 306 307 307 307 308 308 309 309 311 314 317 318 318 319 320 319 320 319 318 318 316 315 312 308 304 301 298 296 294 293 292 292 293 294 295 298 300 301 302 302 303 305 309 313 314 309 304
286 285 284 285 286 287 288 289 290 291 292 292 294 296 297 298 298 297 295 294 292 293 294 294 295 297 298 300 301 302 303 305 307 307 307 306 306 306 306 306 307 307 308 308 310 312 313 316 318 319 320 321 321 320 320 320 320 320 320 320 317 312 308 304 301 299 298 296 294 292 292 294 296 298 300 301 301 302 301 300 301 305 306 303 299
283 282 282 283 284 285 286 287 288 289 290 291 292 294 296 297 297 296 295 294 293 294 294 295 296 298 299 300 302 303 305 306 307 307 306 306 306 306 306 306 307 308 309 310 312 314 315 317 320 321 322 322 321 321 321 321 321 322 322 322 321 317 312 308 305 303 301 300 297 295 293 293 295 296 297 298 298 298 298 297 294 293 295 296 294
282 281 280 281 282 282 283 284 286 287 288 290 292 293 294 295 296 295 294 293 293 294 295 295 296 297 298 300 302 304 306 307 308 307 306 305 305 305 305 306 307 308 309 312 314 314 316 319 321 322 322 322 322 322 323 322 322 322 323 324 324 322 319 315 311 308 305 303 302 301 299 298 298 298 297 297 296 296 297 296 292 287 287 290 291
280 280 280 280 280 281 282 283 284 286 287 289 290 292 293 294 294 294 293 292 292 293 294 294 295 297 299 301 303 305 307 308 307 306 305 305 304 303 304 306 308 309 312 314 315 315 316 319 320 320 321 322 322 324 325 325 324 323 323 323 323 323 322 320 317 314 311 308 306 305 303 302 301 300 299 298 297 296 297 298 295 288 285 287 288
279 280 280 281 280 280 281 281 282 284 286 287 288 289 291 291 292 292 292 291 291 291 293 294 296 298 300 301 304 306 308 308 307 306 305 303 302 301 304 306 308 311 313 314 313 313 316 319 320 320 321 323 324 326 328 329 327 325 323 322 322 322 322 321 320 317 315 312 310 308 306 304 302 300 299 299 300 299 299 299 297 292 289 289 290
278 279 280 280 280 279 279 280 280 281 283 284 285 286 287 288 289 289 290 290 291 291 293 296 298 300 301 303 305 307 308 307 307 305 303 301 299 300 303 306 308 310 311 310 310 313 316 318 320 321 322 324 326 328 331 331 331 329 326 323 322 322 321 321 321 320 318 316 314 311 308 306 304 301 299 300 301 300 298 296 294 292 292 292 294
277 278 279 279 279 278 278 278 279 279 280 281 282 283 284 285 286 287 288 289 291 292 294 296 298 300 302 304 306 307 308 308 307 304 301 298 298 300 303 305 308 310 309 308 309 312 315 317 319 321 323 324 327 330 333 335 335 334 331 327 324 323 322 322 323 322 321 319 317 314 311 308 305 303 301 301 302 301 297 294 292 292 294 295 297
276 277 278 278 278 278 277 278 278 279 279 280 281 281 282 284 285 286 287 289 291 293 295 296 298 300 302 304 306 307 307 307 305 301 297 296 298 301 303 306 308 308 307 307 308 311 314 316 319 321 322 324 328 331 335 337 339 338 337 334 330 328 326 325 325 323 321 320 319 316 314 310 308 307 305 303 303 302 300 297 295 294 295 298 300
275 276 277 278 279 279 278 278 278 279 280 280 281 281 283 284 285 286 287 289 291 293 294 296 298 300 302 304 305 306 306 305 301 296 293 295 298 300 302 304 304 304 304 305 307 310 313 316 318 321 323 325 330 334 338 340 342 342 342 340 338 336 332 330 329 327 325 324 322 319 317 314 312 311 310 308 306 304 302 300 299 297 298 301 301
276 277 278 279 280 280 280 279 279 279 279 280 280 281 282 283 284 285 287 289 291 292 293 295 297 299 301 303 304 304 305 302 296 290 289 291 294 296 298 299 300 300 301 303 306 309 313 315 318 320 323 327 331 335 339 342 344 345 346 345 344 342 340 337 336 335 332 330 328 324 322 320 317 316 314 311 308 306 303 301 300 299 300 302 301
276 277 279 280 281 281 280 279 279 278 278 278 279 280 281 282 283 285 287 288 290 291 293 295 297 299 301 302 302 303 303 298 290 286 287 288 290 291 293 295 296 296 298 301 305 309 312 314 316 319 322 326 330 334 338 341 344 346 347 348 347 347 346 343 340 339 337 335 334 332 331 329 326 323 320 316 312 309 305 302 300 299 300 301 301
278 279 280 281 281 280 280 279 277 277 277 277 278 279 280 281 283 284 286 287 289 290 292 294 296 298 299 300 301 302 300 293 286 284 285 286 287 289 291 292 293 294 297 301 305 308 310 311 313 317 319 323 327 331 334 337 341 344 346 347 348 348 348 347 345 343 341 339 338 338 340 341 339 336 331 325 319 314 309 305 301 298 297 298 299
279 280 280 280 279 279 278 277 276 276 276 276 277 278 279 280 282 283 285 286 288 289 291 293 295 297 298 299 300 300 295 288 284 283 284 284 286 288 289 290 291 293 297 301 304 305 307 308 310 313 317 320 323 327 330 334 337 340 342 345 346 347 347 348 347 347 346 345 343 342 343 344 343 342 341 338 332 325 316 309 303 299 297 296 297
279 279 279 278 278 277 276 276 275 275 275 275 276 277 278 280 281 282 284 285 286 288 290 292 294 295 296 298 298 296 289 284 282 283 283 283 285 287 288 288 290 293 297 300 302 303 304 305 307 310 314 317 320 323 327 329 332 334 337 339 342 343 344 345 346 346 347 349 350 349 348 347 344 342 341 342 341 338 330 319 309 303 299 298 298
279 279 278 277 276 275 275 275 274 274 275 275 276 277 278 279 280 281 282 283 284 286 288 290 292 293 294 295 294 290 284 280 281 282 283 284 285 286 286 287 289 292 295 297 299 299 300 302 304 307 310 313 315 318 321 323 326 328 331 333 336 338 340 341 343 344 345 347 350 352 353 351 348 345 342 341 342 343 340 334 325 315 308 305 306
279 278 277 277 276 276 275 275 275 275 275 276 276 277 278 278 279 280 281 281 283 284 286 288 290 291 291 291 288 283 279 278 280 282 284 285 286 286 286 287 289 291 294 295 296 297 298 300 303 305 308 309 311 313 315 317 320 322 324 327 330 332 334 337 339 340 341 343 346 350 352 352 352 350 348 345 343 344 344 342 338 332 325 319 316
281 280 280 279 279 278 277 277 276 276 276 276 276 276 276 277 277 278 278 279 281 282 284 286 287 288 288 286 281 275 274 277 279 282 284 286 286 286 286 287 289 292 293 294 295 296 297 300 302 304 306 307 308 309 311 313 315 317 319 321 324 326 329 332 334 335 337 340 343 345 347 350 351 352 351 349 348 348 348 346 343 340 336 331 326
285 284 283 281 280 279 278 276 275 275 274 274 274 274 274 274 275 275 276 278 279 280 282 283 283 284 283 279 273 270 271 275 278 282 284 285 285 286 287 289 291 293 294 294 295 296 298 300 302 304 305 306 306 307 308 309 311 312 314 317 319 322 324 327 329 331 333 337 340 341 343 345 348 350 351 351 352 352 352 351 348 344 340 336 331
286 285 283 282 280 278 277 275 274 273 272 272 272 272 272 273 274 274 275 276 277 278 278 278 279 279 276 270 266 267 271 275 278 281 283 284 284 286 289 292 294 295 296 296 296 298 300 301 303 304 305 305 305 305 306 306 307 308 310 312 314 317 320 323 325 327 330 333 336 338 339 341 345 347 348 350 353 354 354 353 352 350 347 341 336
287 285 284 282 280 278 277 275 274 273 272 272 271 271 272 272 273 273 273 273 273 273 273 274 274 271 267 263 263 267 272 276 278 280 281 282 284 287 291 294 296 297 298 299 299 300 301 302 303 304 305 305 306 306 306 306 306 306 306 308 309 312 315 318 321 324 327 330 332 334 336 338 341 343 345 347 351 353 354 353 354 355 355 351 345
289 288 286 284 282 280 278 276 274 273 272 271 270 270 270 270 270 269 269 268 268 268 268 268 266 262 259 259 263 269 273 275 277 278 279 281 284 288 292 295 296 297 298 299 300 301 301 302 303 304 305 305 306 306 307 307 307 306 306 305 306 307 310 313 316 320 324 327 329 330 332 335 337 339 341 344 347 350 352 353 354 356 358 359 356
Height
3105 3104 3103 3102 3101 3100 3098 3097 3096 3095 3093 3092 3090 3089 3088 3087 3086 3085 3084 3083 3082 3082 3081 3080 3079 3078 3077 3076 3075 3074 3073 3072 3070 3069 3068 3067 3066 3065 3064 3062 3061 3060 3058 3057 3055 3054 3052 3051 3050 3048 3047 3045 3044 3043 3042 3040 3039 3037 3035 3033 3032 3029 3025 3021 3015 3011 3012 3013 3013 3015 3016 3017 3021 3024 3023 3021 3022 3021 3021 3022 3023 3023 3024 3025 3026
3100 3099 3098 3098 3097 3096 3095 3093 3092 3090 3089 3088 3087 3086 3085 3083 3082 3081 3081 3080 3079 3078 3077 3076 3075 3074 3073 3072 3071 3070 3068 3067 3066 3064 3063 3062 3061 3059 3058 3057 3055 3054 3053 3051 3050 3048 3047 3046 3044 3042 3041 3039 3038 3036 3035 3034 3031 3030 3029 3026 3024 3023 3019 3015 3010 3006 3004 3005 3006 3006 3006 3005 3009 3015 3014 3012 3013 3012 3011 3013 3013 3013 3015 3015 3016
3095 3095 3094 3093 3093 3092 3090 3089 3088 3086 3085 3084 3083 3082 3081 3080 3079 3078 3077 3076 3075 3074 3073 3072 3071 3070 3069 3068 3067 3065 3064 3062 3061 3059 3058 3056 3055 3054 3052 3051 3049 3048 3047 3045 3044 3043 3041 3040 3038 3036 3035 3033 3032 3030 3028 3027 3025 3023 3022 3020 3017 3016 3014 3009 3005 3000 2997 2997 2998 2998 2997 2994 2997 3003 3004 3003 3005 3004 3002 3004 3004 3003 3004 3005 3005
3091 3090 3090 3089 3088 3087 3086 3085 3084 3082 3081 3080 3079 3078 3076 3075 3074 3073 3073 3071 3070 3069 3068 3068 3067 3066 3065 3063 3062 3061 3059 3057 3056 3054 3053 3051 3050 3048 3047 3046 3044 3042 3041 3039 3038 3036 3034 3033 3032 3030 3028 3026 3025 3023 3021 3019 3017 3015 3014 3013 3010 3008 3007 3004 2999 2995 2990 2988 2990 2990 2988 2985 2985 2990 2993 2993 2995 2995 2994 2994 2995 2993 2993 2993 2994
3087 3086 3085 3084 3083 3082 3081 3081 3080 3078 3077 3075 3074 3073 3072 3071 3070 3069 3068 3067 3066 3065 3064 3063 3062 3061 3060 3058 3057 3055 3054 3052 3050 3049 3047 3046 3044 3043 3041 3040 3038 3037 3035 3033 3031 3029 3028 3026 3025 3023 3021 3019 3017 3015 3013 3011 3009 3007 3006 3004 3002 3000 2998 2996 2993 2989 2985 2981 2981 2981 2980 2977 2974 2977 2981 2980 2981 2984 2985 2986 2985 2984 2983 2984 2984
3082 3081 3081 3080 3079 3078 3078 3077 3075 3074 3072 3071 3070 3069 3068 3067 3066 3065 3064 3063 3062 3061 3059 3058 3057 3055 3054 3053 3051 3049 3048 3046 3044 3043 3041 3040 3039 3037 3036 3034 3033 3031 3029 3027 3025 3023 3021 3019 3017 3016 3013 3011 3010 3007 3005 3003 3001 2999 2997 2995 2993 2990 2989 2988 2985 2981 2978 2975 2973 2972 2971 2969 2965 2965 2969 2968 2967 2971 2974 2975 2975 2974 2974 2974 2974
3077 3077 3076 3075 3075 3074 3073 3072 3070 3069 3068 3066 3065 3064 3063 3062 3061 3060 3059 3058 3057 3056 3054 3053 3051 3050 3048 3047 3045 3044 3042 3040 3039 3037 3036 3034 3033 3031 3030 3029 3027 3025 3023 3021 3019 3017 3015 3013 3011 3009 3007 3004 3002 3000 2998 2995 2993 2991 2989 2986 2984 2981 2979 2978 2976 2972 2970 2968 2966 2965 2963 2961 2957 2955 2957 2956 2955 2958 2960 2959 2960 2965 2966 2965 2964
3073 3072 3072 3071 3071 3070 3068 3067 3066 3064 3063 3062 3061 3060 3059 3058 3057 3056 3055 3054 3052 3051 3049 3048 3046 3045 3043 3042 3040 3039 3037 3035 3033 3032 3030 3029 3027 3026 3024 3023 3021 3019 3017 3016 3014 3011 3009 3007 3005 3003 3000 2998 2996 2993 2991 2988 2985 2983 2981 2978 2975 2972 2970 2968 2966 2963 2960 2958 2958 2957 2954 2952 2950 2946 2946 2946 2945 2947 2948 2944 2944 2952 2956 2955 2954
3068 3068 3067 3067 3066 3065 3063 3062 3061 3060 3059 3057 3056 3055 3054 3053 3052 3051 3050 3049 3048 3046 3044 3043 3041 3040 3039 3037 3036 3034 3032 3030 3028 3026 3025 3023 3022 3020 3019 3017 3015 3014 3012 3009 3008 3006 3003 3001 2999 2997 2994 2992 2990 2987 2984 2981 2977 2975 2973 2970 2967 2964 2961 2959 2956 2953 2951 2949 2948 2947 2945 2944 2942 2938 2937 2936 2934 2934 2936 2934 2933 2938 2941 2941 2944
3063 3063 3062 3062 3061 3059 3059 3058 3057 3056 3054 3053 3052 3051 3050 3049 3048 3047 3046 3044 3043 3041 3040 3038 3037 3036 3034 3033 3031 3029 3027 3025 3023 3021 3019 3017 3016 3014 3013 3011 3009 3007 3005 3003 3001 2999 2997 2995 2993 2990 2988 2985 2983 2980 2978 2974 2970 2967 2964 2961 2958 2955 2952 2950 2948 2944 2942 2940 2940 2938 2935 2934 2933 2930 2927 2927 2924 2923 2924 2924 2922 2926 2927 2926 2931
3058 3058 3058 3057 3055 3054 3054 3053 3052 3051 3050 3049 3048 3046 3045 3044 3043 3042 3040 3039 3038 3037 3035 3034 3032 3031 3030 3028 3026 3024 3022 3020 3017 3016 3014 3011 3009 3008 3006 3005 3003 3001 2999 2997 2995 2992 2991 2988 2986 2984 2981 2979 2975 2973 2970 2967 2963 2960 2957 2953 2950 2947 2944 2941 2939 2936 2933 2931 2931 2929 2926 2924 2924 2921 2918 2917 2915 2914 2914 2913 2911 2913 2916 2914 2917
3054 3053 3053 3052 3050 3050 3049 3048 3048 3047 3046 3045 3043 3042 3040 3039 3038 3037 3036 3035 3034 3032 3031 3029 3028 3026 3025 3023 3021 3019 3017 3014 3012 3010 3008 3006 3003 3001 3000 2998 2996 2994 2992 2990 2988 2986 2983 2981 2979 2977 2974 2971 2968 2964 2961 2958 2955 2952 2949 2946 2942 2939 2936 2933 2930 2927 2924 2922 2921 2920 2917 2914 2914 2912 2909 2907 2906 2905 2905 2904 2902 2902 2903 2903 2905
3049 3048 3047 3046 3046 3045 3044 3044 3043 3042 3041 3040 3038 3037 3035 3034 3033 3032 3031 3030 3029 3028 3026 3024 3023 3021 3019 3018 3016 3014 3011 3009 3006 3004 3002 3000 2997 2995 2994 2992 2990 2988 2986 2983 2981 2979 2976 2974 2972 2970 2967 2963 2960 2956 2952 2949 2946 2943 2940 2938 2935 2933 2930 2926 2923 2919 2916 2913 2912 2911 2909 2906 2905 2904 2901 2898 2896 2896 2895 2895 2895 2894 2892 2893 2894
3044 3043 3042 3041 3041 3040 3039 3039 3038 3037 3036 3035 3033 3032 3030 3029 3028 3027 3027 3025 3024 3023 3021 3020 3018 3016 3014 3012 3010 3008 3006 3003 3001 2999 2996 2994 2992 2990 2988 2986 2984 2982 2980 2977 2975 2972 2970 2967 2965 2962 2959 2955 2951 2947 2943 2939 2936 2934 2932 2929 2927 2925 2922 2919 2916 2912 2909 2905 2903 2903 2901 2898 2896 2896 2894 2890 2887 2887 2887 2887 2887 2885 2884 2886 2887
3038 3038 3037 3036 3036 3035 3034 3034 3033 3032 3031 3029 3028 3027 3026 3025 3024 3023 3022 3021 3019 3018 3016 3015 3013 3011 3009 3007 3005 3003 3001 2998 2995 2993 2991 2988 2986 2984 2982 2980 2978 2976 2974 2971 2969 2966 2963 2960 2957 2954 2951 2947 2943 2937 2933 2930 2927 2925 2923 2921 2919 2917 2914 2911 2908 2904 2901 2898 2895 2894 2893 2891 2889 2888 2886 2883 2880 2880 2880 2879 2878 2877 2876 2879 2880
3033 3032 3032 3031 3031 3030 3029 3028 3027 3026 3025 3024 3023 3022 3021 3020 3019 3018 3017 3016 3014 3013 3012 3010 3008 3006 3004 3002 3000 2998 2996 2993 2990 2988 2986 2983 2981 2979 2977 2975 2973 2971 2968 2965 2963 2960 2957 2954 2950 2947 2943 2939 2935 2930 2926 2922 2919 2916 2914 2912 2910 2908 2905 2903 2900 2897 2894 2891 2888 2886 2884 2882 2881 2880 2878 2875 2873 2873 2873 2872 2871 2871 2870 2872 2873
3028 3028 3027 3027 3026 3025 3024 3023 3022 3021 3020 3019 3018 3017 3016 3015 3014 3013 3012 3011 3010 3008 3007 3005 3003 3001 2999 2997 2995 2993 2991 2988 2985 2983 2980 2978 2976 2973 2971 2969 2967 2965 2962 2959 2957 2954 2951 2947 2943 2939 2935 2931 2927 2923 2920 2915 2912 2908 2905 2903 2901 2898 2896 2895 2893 2890 2887 2884 2882 2880 2878 2876 2875 2873 2871 2869 2867 2867 2866 2865 2865 2865 2864 2864 2864
3024 3023 3023 3022 3021 3020 3019 3019 3018 3017 3016 3015 3014 3013 3012 3011 3010 3009 3007 3006 3004 3003 3002 3000 2998 2996 2994 2992 2990 2988 2985 2982 2980 2978 2976 2973 2971 2968 2966 2964 2962 2959 2956 2954 2951 2948 2944 2941 2936 2931 2927 2924 2920 2916 2913 2908 2905 2901 2897 2894 2891 2889 2888 2886 2884 2881 2879 2877 2875 2874 2872 2871 2870 2867 2865 2863 2862 2861 2860 2859 2859 2859 2858 2857 2857
3019 3019 3018 3017 3016 3015 3015 3014 3013 3012 3011 3010 3009 3008 3007 3006 3005 3003 3002 3000 2999 2998 2996 2995 2993 2991 2988 2986 2984 2982 2980 2977 2975 2973 2971 2968 2965 2963 2960 2958 2956 2953 2950 2947 2944 2941 2938 2934 2930 2925 2921 2918 2914 2910 2906 2902 2898 2894 2891 2887 2883 2882 2880 2878 2875 2872 2870 2869 2867 2867 2866 2865 2864 2862 2859 2858 2857 2856 2855 2854 2854 2853 2851 2850 2850
3015 3014 3013 3012 3011 3010 3010 3009 3008 3007 3006 3005 3004 3003 3002 3001 2999 2998 2997 2995 2994 2992 2991 2989 2987 2985 2983 2981 2979 2976 2974 2973 2970 2968 2966 2963 2960 2957 2954 2952 2949 2946 2944 2940 2938 2935 2931 2927 2924 2920 2915 2912 2909 2905 2900 2896 2892 2888 2884 2880 2877 2875 2873 2869 2866 2864 2862 2861 2860 2859 2858 2857 2856 2855 2853 2851 2850 2850 2850 2849 2848 2847 2844 2843 2843
3010 3009 3008 3007 3006 3006 3005 3004 3003 3002 3001 3000 2999 2998 2997 2995 2994 2993 2991 2990 2988 2987 2985 2984 2982 2980 2978 2976 2974 2971 2969 2967 2965 2963 2960 2957 2954 2951 2948 2945 2942 2939 2937 2934 2930 2927 2924 2920 2917 2913 2909 2906 2903 2899 2895 2891 2886 2882 2878 2875 2871 2868 2866 2862 2858 2856 2855 2853 2852 2851 2850 2850 2849 2847 2846 2844 2843 2842 2842 2841 2840 2840 2837 2836 2836
3005 3004 3003 3003 3002 3001 3000 2999 2998 2997 2996 2995 2994 2993 2991 2990 2989 2987 2986 2984 2983 2981 2980 2978 2977 2975 2973 2971 2969 2966 2964 2962 2960 2958 2955 2952 2948 2945 2942 2939 2935 2932 2929 2926 2923 2920 2917 2913 2910 2907 2903 2900 2896 2893 2889 2885 2881 2876 2872 2869 2866 2864 2861 2856 2852 2851 2849 2847 2845 2844 2844 2843 2842 2840 2839 2838 2837 2835 2834 2833 2833 2833 2831 2830 2830
3000 2999 2999 2998 2997 2996 2995 2994 2993 2992 2991 2990 2989 2987 2986 2985 2983 2981 2980 2978 2977 2976 2974 2973 2971 2970 2969 2967 2964 2961 2959 2957 2954 2952 2949 2946 2943 2940 2936 2933 2929 2925 2920 2918 2915 2912 2910 2906 2903 2900 2897 2893 2890 2887 2883 2880 2876 2872 2868 2864 2860 2858 2855 2851 2848 2846 2844 2842 2840 2839 2838 2837 2835 2834 2833 2832 2831 2829 2828 2827 2827 2826 2825 2824 2823
2995 2994 2994 2993 2992 2991 2990 2989 2988 2987 2985 2984 2983 2981 2980 2979 2977 2976 2974 2973 2971 2970 2969 2967 2966 2965 2964 2962 2959 2957 2954 2952 2949 2947 2944 2941 2938 2935 2931 2927 2923 2919 2914 2911 2908 2905 2903 2900 2897 2894 2890 2887 2884 2881 2878 2874 2871 2868 2864 2860 2856 2852 2848 2845 2843 2841 2838 2837 2836 2834 2832 2831 2830 2828 2827 2826 2825 2824 2823 2822 2821 2819 2818 2816 2815
2990 2989 2988 2987 2986 2985 2984 2983 2982 2981 2980 2978 2977 2976 2974 2973 2972 2970 2969 2967 2966 2965 2963 2962 2960 2959 2958 2956 2954 2951 2949 2946 2943 2941 2938 2934 2931 2928 2925 2921 2917 2913 2909 2905 2902 2899 2897 2894 2891 2888 2884 2881 2878 2874 2871 2868 2864 2861 2858 2854 2850 2846 2842 2840 2837 2835 2833 2831 2830 2828 2827 2827 2825 2823 2822 2821 2820 2818 2818 2816 2814 2813 2811 2809 2807
2985 2984 2983 2982 2981 2980 2979 2978 2977 2976 2974 2973 2972 2970 2969 2968 2966 2965 2963 2962 2960 2959 2958 2956 2955 2953 2952 2950 2948 2945 2943 2940 2937 2934 2931 2928 2925 2922 2919 2916 2912 2908 2904 2900 2897 2894 2892 2889 2886 2882 2879 2875 2872 2868 2864 2861 2857 2854 2851 2848 2844 2841 2837 2834 2832 2830 2828 2826 2824 2823 2822 2822 2821 2819 2818 2816 2815 2814 2813 2810 2808 2807 2804 2801 2799
2979 2978 2977 2976 2975 2974 2973 2972 2971 2970 2969 2968 2966 2965 2964 2962 2961 2959 2958 2956 2955 2954 2952 2951 2949 2948 2946 2944 2942 2939 2937 2934 2931 2928 2925 2922 2919 2916 2913 2909 2906 2902 2898 2895 2891 2888 2886 2884 2881 2877 2873 2870 2867 2863 2859 2856 2852 2848 2845 2842 2839 2836 2833 2829 2827 2824 2822 2820 2819 2818 2818 2817 2816 2815 2814 2812 2810 2809 2807 2804 2801 2799 2797 2793 2790
2974 2973 2972 2971 2970 2969 2968 2967 2965 2964 2963 2962 2961 2959 2958 2957 2956 2954 2952 2951 2949 2948 2947 2945 2944 2941 2939 2938 2936 2933 2931 2928 2925 2921 2918 2914 2911 2908 2905 2902 2899 2895 2891 2888 2885 2882 2880 2878 2875 2872 2868 2864 2861 2858 2855 2851 2847 2843 2840 2837 2834 2832 2829 2825 2822 2820 2817 2815 2813 2813 2813 2812 2811 2810 2808 2807 2805 2804 2802 2798 2795 2792 2789 2786 2783
2968 2967 2966 2965 2964 2963 2962 2961 2960 2958 2957 2956 2955 2954 2952 2951 2950 2948 2947 2945 2944 2942 2941 2940 2938 2936 2933 2931 2929 2927 2925 2922 2918 2914 2911 2907 2904 2901 2898 2895 2891 2888 2885 2882 2879 2876 2874 2872 2869 2866 2862 2859 2855 2852 2849 2846 2843 2839 2836 2832 2829 2827 2824 2821 2819 2816 2813 2811 2809 2808 2807 2806 2805 2804 2802 2801 2799 2799 2796 2793 2789 2786 2784 2780 2778
2963 2962 2961 2960 2958 2957 2956 2955 2954 2953 2951 2950 2949 2948 2947 2945 2944 2942 2941 2939 2938 2936 2935 2934 2932 2929 2927 2925 2923 2920 2918 2915 2911 2908 2904 2901 2898 2895 2892 2888 2885 2882 2879 2876 2874 2871 2868 2866 2863 2859 2856 2852 2849 2846 2843 2840 2837 2834 2832 2829 2825 2822 2819 2817 2814 2811 2809 2807 2805 2803 2802 2800 2798 2797 2795 2793 2792 2792 2791 2788 2784 2781 2779 2776 2774
2957 2956 2955 2954 2952 2951 2950 2949 2948 2947 2946 2944 2943 2942 2940 2939 2937 2936 2935 2934 2932 2931 2929 2928 2926 2923 2921 2918 2916 2914 2911 2908 2905 2901 2897 2894 2892 2889 2886 2883 2880 2877 2874 2871 2869 2866 2863 2861 2858 2854 2851 2847 2843 2840 2837 2834 2831 2828 2826 2824 2822 2818 2815 2812 2809 2806 2804 2802 2800 2798 2797 2795 2793 2791 2789 2787 2786 2785 2784 2783 2780 2777 2775 2773 2770
2951 2950 2949 2948 2947 2946 2944 2943 2942 2941 2940 2938 2937 2936 2934 2933 2931 2929 2928 2927 2926 2925 2923 2922 2920 2917 2915 2912 2910 2907 2905 2902 2898 2895 2891 2888 2885 2883 2880 2877 2874 2872 2869 2867 2864 2861 2859 2856 2852 2849 2846 2842 2839 2836 2833 2829 2826 2823 2820 2819 2817 2815 2811 2808 2805 2802 2800 2797 2795 2794 2792 2790 2788 2786 2785 2783 2781 2779 2778 2777 2776 2774 2771 2769 2767
2945 2944 2943 2942 2941 2940 2939 2937 2936 2935 2934 2932 2931 2929 2928 2927 2926 2924 2922 2921 2920 2919 2917 2915 2913 2911 2909 2906 2903 2901 2898 2895 2892 2888 2885 2882 2879 2877 2875 2872 2869 2867 2865 2862 2860 2857 2854 2851 2848 2844 2841 2838 2835 2832 2829 2825 2822 2819 2816 2813 2811 2809 2807 2804 2801 2798 2796 2793 2791 2789 2787 2785 2783 2781 2779 2778 2776 2773 2772 2770 2770 2769 2766 2764 2763
2938 2938 2937 2936 2935 2934 2932 2931 2930 2929 2928 2926 2925 2924 2922 2921 2920 2919 2918 2916 2914 2912 2910 2909 2907 2905 2903 2901 2898 2895 2892 2889 2885 2882 2878 2876 2874 2872 2870 2868 2865 2862 2859 2857 2855 2853 2850 2847 2844 2841 2838 2835 2831 2828 2825 2821 2818 2815 2812 2809 2807 2804 2801 2799 2797 2794 2792 2790 2787 2785 2783 2781 2779 2777 2774 2772 2771 2769 2767 2765 2764 2763 2761 2760 2758
2932 2931 2930 2929 2929 2927 2926 2925 2924 2923 2922 2920 2919 2918 2916 2915 2914 2913 2912 2911 2909 2907 2905 2902 2900 2899 2897 2895 2892 2889 2886 2883 2879 2876 2873 2870 2868 2867 2865 2864 2861 2858 2855 2853 2851 2848 2846 2843 2841 2838 2835 2832 2829 2825 2822 2818 2815 2812 2809 2806 2803 2800 2798 2795 2792 2790 2788 2786 2784 2781 2779 2777 2775 2773 2770 2768 2766 2764 2763 2761 2759 2758 2757 2755 2753
2926 2925 2924 2923 2922 2921 2920 2919 2917 2916 2916 2914 2913 2912 2910 2909 2908 2907 2905 2904 2903 2902 2900 2897 2894 2892 2890 2888 2886 2884 2881 2878 2874 2870 2867 2865 2863 2862 2861 2859 2858 2856 2853 2851 2848 2845 2842 2839 2837 2834 2831 2829 2826 2822 2819 2815 2812 2809 2805 2802 2799 2797 2794 2791 2789 2786 2784 2782 2780 2778 2775 2773 2772 2769 2767 2764 2763 2761 2759 2757 2756 2754 2752 2751 2749
2920 2919 2918 2916 2915 2914 2913 2912 2911 2910 2909 2908 2907 2905 2904 2903 2901 2900 2899 2898 2896 2895 2894 2892 2889 2886 2883 2881 2879 2877 2875 2872 2868 2864 2862 2860 2858 2857 2856 2855 2853 2852 2850 2848 2845 2842 2839 2836 2833 2831 2828 2826 2823 2820 2817 2813 2809 2806 2803 2800 2797 2794 2791 2788 2786 2783 2781 2779 2777 2774 2772 2770 2768 2766 2763 2761 2759 2757 2755 2754 2752 2750 2748 2747 2745
2913 2912 2911 2910 2909 2908 2907 2906 2905 2903 2902 2901 2900 2899 2898 2897 2895 2894 2893 2892 2890 2889 2887 2885 2884 2881 2878 2875 2873 2870 2869 2867 2863 2859 2856 2855 2853 2852 2851 2849 2848 2847 2846 2844 2842 2839 2837 2834 2831 2828 2826 2823 2821 2818 2815 2811 2808 2804 2801 2799 2795 2792 2789 2786 2784 2781 2778 2776 2774 2771 2769 2767 2764 2762 2760 2757 2755 2754 2752 2750 2748 2746 2744 2743 2741
2906 2905 2904 2903 2902 2901 2900 2899 2898 2897 2896 2895 2894 2893 2892 2891 2889 2888 2886 2885 2884 2882 2881 2879 2877 2875 2873 2870 2867 2865 2863 2861 2859 2855 2852 2850 2849 2847 2846 2845 2844 2843 2842 2840 2838 2836 2833 2831 2828 2826 2823 2821 2818 2815 2812 2809 2806 2803 2800 2797 2794 2791 2787 2784 2782 2779 2777 2774 2771 2769 2766 2764 2761 2759 2756 2754 2752 2750 2748 2747 2745 2743 2740 2738 2737
2899 2898 2897 2896 2895 2894 2893 2892 2891 2890 2889 2888 2887 2886 2885 2884 2883 2881 2880 2879 2878 2876 2874 2873 2871 2869 2867 2864 2862 2860 2858 2856 2854 2852 2849 2847 2846 2844 2843 2842 2840 2839 2838 2837 2834 2832 2829 2827 2825 2823 2821 2818 2815 2813 2810 2807 2805 2802 2798 2795 2792 2789 2786 2782 2780 2777 2775 2772 2769 2766 2763 2761 2758 2755 2753 2751 2748 2746 2744 2743 2741 2739 2737 2735 2733
2892 2891 2890 2889 2888 2887 2886 2885 2884 2883 2882 2881 2880 2879 2878 2877 2876 2875 2873 2872 2871 2870 2868 2867 2865 2863 2861 2858 2856 2854 2853 2851 2850 2848 2846 2844 2843 2841 2840 2838 2837 2835 2834 2833 2831 2828 2826 2824 2822 2820 2818 2815 2813 2810 2808 2805 2802 2800 2797 2794 2790 2787 2784 2781 2778 2775 2772 2770 2767 2764 2761 2758 2754 2752 2749 2747 2745 2743 2741 2739 2737 2735 2734 2732 2731
2885 2884 2883 2882 2881 2880 2879 2878 2877 2876 2875 2874 2873 2872 2871 2870 2869 2868 2867 2866 2864 2863 2862 2860 2859 2856 2854 2852 2850 2849 2847 2846 2845 2844 2842 2841 2839 2838 2836 2835 2833 2832 2830 2828 2827 2825 2823 2821 2819 2817 2815 2813 2811 2808 2806 2803 2800 2797 2794 2791 2788 2785 2782 2780 2776 2773 2770 2768 2765 2761 2758 2755 2752 2749 2747 2744 2742 2739 2737 2735 2733 2732 2730 2729 2728
2878 2877 2876 2874 2873 2873 2872 2871 2870 2869 2868 2867 2866 2865 2864 2863 2862 2861 2860 2859 2858 2856 2855 2854 2852 2850 2848 2846 2845 2843 2842 2841 2840 2839 2838 2837 2835 2834 2832 2831 2829 2828 2826 2824 2823 2821 2820 2818 2816 2814 2812 2810 2808 2805 2803 2800 2797 2795 2792 2789 2786 2783 2780 2778 2775 2772 2769 2766 2763 2760 2757 2753 2750 2748 2745 2742 2739 2737 2734 2732 2730 2729 2727 2725 2724
2871 2870 2868 2867 2866 2865 2864 2863 2862 2861 2860 2859 2858 2857 2856 2855 2854 2853 2853 2852 2851 2850 2849 2848 2846 2844 2842 2840 2839 2838 2837 2836 2835 2835 2834 2833 2831 2830 2828 2827 2826 2824 2822 2820 2819 2817 2816 2815 2813 2811 2809 2807 2805 2802 2800 2797 2794 2792 2789 2787 2784 2781 2778 2776 2773 2769 2766 2763 2760 2757 2755 2751 2749 2746 2743 2740 2737 2735 2732 2730 2728 2726 2724 2723 2721
2863 2862 2861 2859 2858 2857 2856 2854 2853 2852 2851 2850 2850 2849 2848 2847 2846 2846 2845 2845 2844 2843 2842 2841 2840 2838 2836 2835 2833 2832 2831 2831 2830 2830 2829 2828 2827 2826 2825 2823 2822 2820 2818 2817 2816 2814 2813 2811 2810 2808 2806 2804 2802 2800 2797 2795 2792 2790 2787 2784 2782 2779 2777 2774 2771 2768 2764 2761 2758 2755 2752 2750 2747 2744 2741 2738 2735 2732 2730 2728 2726 2724 2722 2720 2719
2855 2854 2852 2851 2849 2848 2847 2846 2844 2843 2843 2842 2841 2840 2840 2839 2839 2838 2838 2837 2837 2836 2835 2834 2833 2832 2831 2829 2828 2827 2826 2826 2825 2825 2824 2823 2822 2821 2820 2819 2818 2816 2815 2813 2812 2811 2809 2808 2806 2804 2803 2801 2800 2798 2795 2793 2791 2788 2785 2783 2780 2777 2775 2772 2769 2766 2763 2760 2757 2754 2751 2748 2745 2743 2739 2737 2734 2731 2728 2726 2724 2722 2720 2718 2717
2846 2845 2843 2842 2840 2839 2838 2836 2835 2834 2833 2832 2832 2832 2831 2830 2830 2830 2830 2830 2829 2829 2828 2828 2827 2826 2825 2824 2823 2822 2822 2821 2821 2820 2819 2818 2818 2817 2816 2815 2813 2812 2811 2810 2808 2807 2805 2804 2802 2800 2799 2797 2796 2794 2793 2791 2788 2786 2784 2781 2778 2776 2773 2771 2768 2765 2762 2759 2755 2752 2750 2747 2744 2742 2739 2736 2733 2730 2727 2724 2722 2720 2718 2716 2715
2837 2835 2833 2831 2830 2828 2827 2825 2824 2823 2823 2822 2822 2822 2822 2821 2821 2821 2821 2822 2822 2822 2822 2821 2820 2819 2819 2818 2818 2817 2817 2817 2816 2816 2815 2814 2813 2812 2811 2810 2809 2807 2806 2805 2804 2803 2801 2799 2798 2796 2794 2793 2792 2791 2789 2787 2786 2783 2781 2779 2776 2774 2771 2769 2766 2764 2761 2758 2755 2752 2749 2746 2744 2741 2738 2735 2732 2729 2726 2723 2721 2718 2717 2715 2713
2826 2824 2822 2820 2818 2816 2815 2813 2812 2812 2812 2811 2811 2812 2812 2812 2813 2813 2813 2814 2814 2815 2815 2814 2814 2813 2813 2813 2813 2813 2813 2812 2812 2811 2810 2809 2808 2807 2806 2805 2804 2803 2802 2801 2800 2798 2797 2795 2794 2792 2791 2789 2788 2786 2785 2784 2782 2780 2778 2776 2774 2772 2769 2767 2765 2762 2759 2757 2754 2751 2748 2746 2743 2740 2738 2735 2732 2729 2726 2723 2720 2718 2715 2713 2712
2815 2812 2810 2807 2805 2804 2802 2801 2801 2800 2800 2801 2801 2802 2803 2803 2804 2805 2806 2806 2807 2807 2807 2807 2808 2808 2808 2808 2808 2808 2808 2808 2807 2807 2806 2805 2804 2803 2802 2801 2800 2799 2798 2797 2796 2794 2793 2791 2790 2788 2787 2785 2784 2782 2781 2779 2778 2776 2775 2773 2771 2769 2767 2765 2763 2760 2758 2755 2752 2750 2748 2745 2743 2740 2737 2735 2732 2729 2727 2724 2721 2718 2715 2713 2711
2803 2800 2798 2795 2793 2792 2790 2790 2789 2789 2790 2791 2792 2793 2794 2795 2796 2797 2798 2799 2800 2800 2801 2801 2802 2802 2803 2803 2804 2804 2804 2803 2803 2802 2802 2801 2800 2799 2798 2797 2796 2795 2794 2793 2792 2790 2789 2787 2786 2785 2783 2782 2781 2779 2777 2776 2774 2772 2771 2769 2767 2766 2764 2762 2760 2758 2755 2753 2751 2748 2746 2744 2742 2739 2737 2735 2732 2729 2727 2724 2721 2719 2716 2713 2711